Time,TemperatureF,DewpointF,PressureIn,WindDirection,WindDirectionDegrees,WindSpeedMPH,WindSpeedGustMPH,Humidity,HourlyPrecipIn,Conditions,Clouds,dailyrainin,SoftwareType,DateUTC
2013-08-08 00:04:00,72.0,0.0,29.87,SSW,208,6.0,8.0,24,-99.99,,,-99.99,,2013-08-08 07:04:00,
2013-08-08 00:12:00,72.0,0.0,29.87,SW,225,6.0,9.0,28,-99.99,,,-99.99,,2013-08-08 07:12:00,
2013-08-08 00:20:00,71.0,0.0,29.87,WSW,247,3.0,9.0,27,-99.99,,,-99.99,,2013-08-08 07:20:00,
2013-08-08 00:28:00,69.0,0.0,29.87,SSW,199,1.0,5.0,28,-99.99,,,-99.99,,2013-08-08 07:28:00,
2013-08-08 00:36:00,69.0,0.0,29.87,SW,226,2.0,5.0,28,-99.99,,,-99.99,,2013-08-08 07:36:00,
2013-08-08 00:44:00,70.0,0.0,29.87,WSW,244,2.0,6.0,27,-99.99,,,-99.99,,2013-08-08 07:44:00,
2013-08-08 00:52:00,68.0,0.0,29.87,WSW,237,1.0,5.0,26,-99.99,,,-99.99,,2013-08-08 07:52:00,
2013-08-08 01:00:00,68.0,0.0,29.87,West,261,7.0,7.0,28,-99.99,,,-99.99,,2013-08-08 08:00:00,
2013-08-08 01:08:00,65.0,0.0,29.87,West,278,5.0,9.0,28,-99.99,,,-99.99,,2013-08-08 08:08:00,
2013-08-08 01:16:00,64.0,0.0,29.87,North,2,0.0,5.0,27,-99.99,,,-99.99,,2013-08-08 08:16:00,
2013-08-08 01:24:00,65.0,0.0,29.87,WSW,243,3.0,3.0,29,-99.99,,,-99.99,,2013-08-08 08:24:00,
2013-08-08 01:32:00,65.0,0.0,29.86,SSW,194,1.0,3.0,28,-99.99,,,-99.99,,2013-08-08 08:32:00,
2013-08-08 01:40:00,63.0,0.0,29.86,SSW,202,2.0,5.0,31,-99.99,,,-99.99,,2013-08-08 08:40:00,
2013-08-08 01:48:00,62.0,0.0,29.87,East,82,2.0,5.0,31,-99.99,,,-99.99,,2013-08-08 08:48:00,
2013-08-08 01:56:00,61.0,0.0,29.87,NW,322,0.0,5.0,34,-99.99,,,-99.99,,2013-08-08 08:56:00,
2013-08-08 02:04:00,62.0,0.0,29.86,NW,307,5.0,5.0,30,-99.99,,,-99.99,,2013-08-08 09:04:00,
2013-08-08 02:12:00,60.0,0.0,29.86,NE,34,5.0,7.0,33,-99.99,,,-99.99,,2013-08-08 09:12:00,
2013-08-08 02:20:00,60.0,0.0,29.86,ENE,68,2.0,6.0,33,-99.99,,,-99.99,,2013-08-08 09:20:00,
2013-08-08 02:28:00,60.0,0.0,29.87,East,83,2.0,3.0,32,-99.99,,,-99.99,,2013-08-08 09:28:00,
2013-08-08 02:36:00,62.0,0.0,29.86,NW,321,1.0,2.0,34,-99.99,,,-99.99,,2013-08-08 09:36:00,
2013-08-08 02:44:00,62.0,0.0,29.86,NNE,25,2.0,2.0,32,-99.99,,,-99.99,,2013-08-08 09:44:00,
2013-08-08 02:52:00,61.0,0.0,29.86,NW,307,1.0,5.0,36,-99.99,,,-99.99,,2013-08-08 09:52:00,
2013-08-08 03:00:00,60.0,0.0,29.87,South,175,2.0,2.0,32,-99.99,,,-99.99,,2013-08-08 10:00:00,
2013-08-08 03:08:00,61.0,0.0,29.86,NW,309,1.0,3.0,37,-99.99,,,-99.99,,2013-08-08 10:08:00,
2013-08-08 03:16:00,59.0,0.0,29.87,East,79,3.0,6.0,34,-99.99,,,-99.99,,2013-08-08 10:16:00,
2013-08-08 03:24:00,62.0,0.0,29.86,SE,140,1.0,5.0,33,-99.99,,,-99.99,,2013-08-08 10:24:00,
2013-08-08 03:32:00,61.0,0.0,29.86,NNW,327,0.0,3.0,35,-99.99,,,-99.99,,2013-08-08 10:32:00,
2013-08-08 03:40:00,63.0,0.0,29.86,SW,229,3.0,5.0,34,-99.99,,,-99.99,,2013-08-08 10:40:00,
2013-08-08 03:48:00,59.0,0.0,29.86,West,272,7.0,7.0,33,-99.99,,,-99.99,,2013-08-08 10:48:00,
2013-08-08 03:56:00,58.0,0.0,29.86,West,268,7.0,9.0,37,-99.99,,,-99.99,,2013-08-08 10:56:00,
2013-08-08 04:04:00,58.0,0.0,29.87,ENE,70,7.0,9.0,36,-99.99,,,-99.99,,2013-08-08 11:04:00,
2013-08-08 04:12:00,59.0,0.0,29.87,WNW,283,6.0,7.0,36,-99.99,,,-99.99,,2013-08-08 11:12:00,
2013-08-08 04:20:00,59.0,0.0,29.87,NW,325,2.0,7.0,37,-99.99,,,-99.99,,2013-08-08 11:20:00,
2013-08-08 04:28:00,58.0,0.0,29.87,SE,142,2.0,6.0,39,-99.99,,,-99.99,,2013-08-08 11:28:00,
2013-08-08 04:36:00,58.0,0.0,29.87,WSW,242,2.0,3.0,37,-99.99,,,-99.99,,2013-08-08 11:36:00,
2013-08-08 04:44:00,58.0,0.0,29.87,East,87,2.0,3.0,36,-99.99,,,-99.99,,2013-08-08 11:44:00,
2013-08-08 04:52:00,58.0,0.0,29.87,SE,144,2.0,5.0,40,-99.99,,,-99.99,,2013-08-08 11:52:00,
2013-08-08 05:00:00,59.0,0.0,29.87,SSW,203,0.0,5.0,37,-99.99,,,-99.99,,2013-08-08 12:00:00,
2013-08-08 05:08:00,61.0,0.0,29.87,SE,143,5.0,5.0,37,-99.99,,,-99.99,,2013-08-08 12:08:00,
2013-08-08 05:16:00,61.0,0.0,29.87,South,179,3.0,5.0,35,-99.99,,,-99.99,,2013-08-08 12:16:00,
2013-08-08 05:24:00,61.0,0.0,29.88,SSE,163,2.0,6.0,34,-99.99,,,-99.99,,2013-08-08 12:24:00,
2013-08-08 05:32:00,59.0,0.0,29.88,North,8,2.0,6.0,39,-99.99,,,-99.99,,2013-08-08 12:32:00,
2013-08-08 05:40:00,59.0,0.0,29.89,North,349,2.0,3.0,38,-99.99,,,-99.99,,2013-08-08 12:40:00,
2013-08-08 05:48:00,59.0,0.0,29.89,WNW,301,5.0,5.0,36,-99.99,,,-99.99,,2013-08-08 12:48:00,
2013-08-08 05:56:00,56.0,0.0,29.89,West,261,3.0,7.0,40,-99.99,,,-99.99,,2013-08-08 12:56:00,
2013-08-08 06:04:00,56.0,0.0,29.89,SSE,154,2.0,5.0,40,-99.99,,,-99.99,,2013-08-08 13:04:00,
2013-08-08 06:12:00,57.0,0.0,29.89,SSW,205,2.0,3.0,42,-99.99,,,-99.99,,2013-08-08 13:12:00,
2013-08-08 06:20:00,55.0,0.0,29.89,North,6,6.0,8.0,46,-99.99,,,-99.99,,2013-08-08 13:20:00,
2013-08-08 06:28:00,55.0,0.0,29.90,North,6,7.0,9.0,41,-99.99,,,-99.99,,2013-08-08 13:28:00,
2013-08-08 06:36:00,56.0,0.0,29.90,NNE,24,5.0,8.0,43,-99.99,,,-99.99,,2013-08-08 13:36:00,
2013-08-08 06:44:00,56.0,0.0,29.90,North,349,6.0,8.0,41,-99.99,,,-99.99,,2013-08-08 13:44:00,
2013-08-08 06:52:00,58.0,0.0,29.90,North,7,5.0,7.0,43,-99.99,,,-99.99,,2013-08-08 13:52:00,
2013-08-08 07:00:00,61.0,0.0,29.90,NNE,17,5.0,6.0,37,-99.99,,,-99.99,,2013-08-08 14:00:00,
2013-08-08 07:08:00,63.0,0.0,29.91,NNW,335,2.0,5.0,35,-99.99,,,-99.99,,2013-08-08 14:08:00,
2013-08-08 07:16:00,64.0,0.0,29.91,SSW,194,2.0,3.0,33,-99.99,,,-99.99,,2013-08-08 14:16:00,
2013-08-08 07:24:00,64.0,0.0,29.91,WSW,243,1.0,7.0,32,-99.99,,,-99.99,,2013-08-08 14:24:00,
2013-08-08 07:32:00,64.0,0.0,29.92,WNW,286,1.0,6.0,32,-99.99,,,-99.99,,2013-08-08 14:32:00,
2013-08-08 07:40:00,64.0,0.0,29.92,WSW,251,5.0,6.0,32,-99.99,,,-99.99,,2013-08-08 14:40:00,
2013-08-08 07:48:00,65.0,0.0,29.93,SSE,156,2.0,6.0,35,-99.99,,,-99.99,,2013-08-08 14:48:00,
2013-08-08 07:56:00,66.0,0.0,29.93,South,174,3.0,6.0,31,-99.99,,,-99.99,,2013-08-08 14:56:00,
2013-08-08 08:04:00,66.0,0.0,29.93,SE,140,2.0,6.0,32,-99.99,,,-99.99,,2013-08-08 15:04:00,
2013-08-08 08:16:00,68.0,0.0,29.93,South,180,2.0,3.0,31,-99.99,,,-99.99,,2013-08-08 15:16:00,
2013-08-08 08:24:00,70.0,0.0,29.93,WSW,257,2.0,3.0,30,-99.99,,,-99.99,,2013-08-08 15:24:00,
2013-08-08 08:32:00,71.0,0.0,29.93,NW,323,2.0,3.0,27,-99.99,,,-99.99,,2013-08-08 15:32:00,
2013-08-08 08:40:00,72.0,0.0,29.93,WNW,292,0.0,2.0,27,-99.99,,,-99.99,,2013-08-08 15:40:00,
2013-08-08 08:48:00,74.0,0.0,29.93,ESE,118,3.0,3.0,25,-99.99,,,-99.99,,2013-08-08 15:48:00,
2013-08-08 08:56:00,73.0,0.0,29.93,ESE,109,5.0,6.0,28,-99.99,,,-99.99,,2013-08-08 15:56:00,
2013-08-08 09:04:00,74.0,0.0,29.93,SSE,156,1.0,8.0,25,-99.99,,,-99.99,,2013-08-08 16:04:00,
2013-08-08 09:12:00,75.0,0.0,29.93,WSW,240,3.0,5.0,24,-99.99,,,-99.99,,2013-08-08 16:12:00,
2013-08-08 09:20:00,77.0,0.0,29.93,South,190,3.0,6.0,28,-99.99,,,-99.99,,2013-08-08 16:20:00,
2013-08-08 09:28:00,78.0,0.0,29.93,South,190,2.0,6.0,23,-99.99,,,-99.99,,2013-08-08 16:28:00,
2013-08-08 09:36:00,79.0,0.0,29.93,West,272,5.0,9.0,24,-99.99,,,-99.99,,2013-08-08 16:36:00,
2013-08-08 09:44:00,79.0,0.0,29.93,West,272,5.0,9.0,24,-99.99,,,-99.99,,2013-08-08 16:44:00,
2013-08-08 09:52:00,80.0,0.0,29.93,South,191,5.0,8.0,21,-99.99,,,-99.99,,2013-08-08 16:52:00,
2013-08-08 10:00:00,81.0,0.0,29.93,South,181,6.0,8.0,20,-99.99,,,-99.99,,2013-08-08 17:00:00,
2013-08-08 10:08:00,82.0,0.0,29.93,SW,224,6.0,8.0,22,-99.99,,,-99.99,,2013-08-08 17:08:00,
2013-08-08 10:16:00,83.0,0.0,29.93,SSE,152,6.0,10.0,19,-99.99,,,-99.99,,2013-08-08 17:16:00,
2013-08-08 10:24:00,83.0,0.0,29.93,SW,235,7.0,9.0,20,-99.99,,,-99.99,,2013-08-08 17:24:00,
2013-08-08 10:32:00,83.0,0.0,29.94,SE,142,8.0,10.0,20,-99.99,,,-99.99,,2013-08-08 17:32:00,
2013-08-08 10:40:00,83.0,0.0,29.93,SE,125,5.0,9.0,17,-99.99,,,-99.99,,2013-08-08 17:40:00,
2013-08-08 10:48:00,84.0,0.0,29.93,South,170,3.0,9.0,17,-99.99,,,-99.99,,2013-08-08 17:48:00,
2013-08-08 10:56:00,85.0,0.0,29.92,South,173,5.0,10.0,18,-99.99,,,-99.99,,2013-08-08 17:56:00,
2013-08-08 11:04:00,87.0,0.0,29.92,East,79,2.0,9.0,17,-99.99,,,-99.99,,2013-08-08 18:04:00,
2013-08-08 11:12:00,86.0,0.0,29.92,ESE,108,1.0,9.0,18,-99.99,,,-99.99,,2013-08-08 18:12:00,
2013-08-08 11:20:00,86.0,0.0,29.92,SSE,163,5.0,12.0,19,-99.99,,,-99.99,,2013-08-08 18:20:00,
2013-08-08 11:28:00,86.0,0.0,29.92,ESE,110,3.0,9.0,21,-99.99,,,-99.99,,2013-08-08 18:28:00,
2013-08-08 11:36:00,87.0,0.0,29.91,NE,51,3.0,17.0,19,-99.99,,,-99.99,,2013-08-08 18:36:00,
2013-08-08 11:44:00,88.0,0.0,29.91,SE,124,6.0,14.0,19,-99.99,,,-99.99,,2013-08-08 18:44:00,
2013-08-08 11:52:00,89.0,0.0,29.91,SE,134,9.0,12.0,17,-99.99,,,-99.99,,2013-08-08 18:52:00,
2013-08-08 12:00:00,88.0,0.0,29.91,SSE,163,6.0,13.0,16,-99.99,,,-99.99,,2013-08-08 19:00:00,
2013-08-08 12:08:00,91.0,0.0,29.90,SE,135,6.0,10.0,18,-99.99,,,-99.99,,2013-08-08 19:08:00,
2013-08-08 12:16:00,90.0,0.0,29.90,SSW,213,8.0,13.0,15,-99.99,,,-99.99,,2013-08-08 19:16:00,
2013-08-08 12:24:00,90.0,0.0,29.89,SW,234,7.0,15.0,14,-99.99,,,-99.99,,2013-08-08 19:24:00,
2013-08-08 12:32:00,91.0,0.0,29.89,SSW,208,1.0,15.0,15,-99.99,,,-99.99,,2013-08-08 19:32:00,
2013-08-08 12:40:00,91.0,0.0,29.89,SW,228,2.0,10.0,14,-99.99,,,-99.99,,2013-08-08 19:40:00,
2013-08-08 12:48:00,92.0,0.0,29.89,South,177,12.0,16.0,14,-99.99,,,-99.99,,2013-08-08 19:48:00,
2013-08-08 12:56:00,92.0,0.0,29.89,SSW,198,6.0,15.0,14,-99.99,,,-99.99,,2013-08-08 19:56:00,
2013-08-08 13:04:00,92.0,0.0,29.88,SW,220,3.0,13.0,13,-99.99,,,-99.99,,2013-08-08 20:04:00,
2013-08-08 13:12:00,93.0,0.0,29.88,SSW,200,14.0,18.0,11,-99.99,,,-99.99,,2013-08-08 20:12:00,
2013-08-08 13:20:00,92.0,0.0,29.88,SSW,203,7.0,18.0,12,-99.99,,,-99.99,,2013-08-08 20:20:00,
2013-08-08 13:28:00,94.0,0.0,29.88,South,170,17.0,23.0,10,-99.99,,,-99.99,,2013-08-08 20:28:00,
2013-08-08 13:36:00,93.0,0.0,29.87,SSE,160,14.0,23.0,12,-99.99,,,-99.99,,2013-08-08 20:36:00,
2013-08-08 13:44:00,95.0,0.0,29.87,SE,146,15.0,20.0,11,-99.99,,,-99.99,,2013-08-08 20:44:00,
2013-08-08 13:52:00,93.0,0.0,29.87,WSW,238,15.0,26.0,10,-99.99,,,-99.99,,2013-08-08 20:52:00,
2013-08-08 14:00:00,94.0,0.0,29.87,SW,226,12.0,23.0,12,-99.99,,,-99.99,,2013-08-08 21:00:00,
2013-08-08 14:08:00,93.0,0.0,29.86,SW,216,25.0,25.0,12,-99.99,,,-99.99,,2013-08-08 21:08:00,
2013-08-08 14:16:00,93.0,0.0,29.86,SW,215,14.0,28.0,13,-99.99,,,-99.99,,2013-08-08 21:16:00,
2013-08-08 14:24:00,94.0,0.0,29.86,SW,222,15.0,25.0,14,-99.99,,,-99.99,,2013-08-08 21:24:00,
2013-08-08 14:32:00,94.0,0.0,29.85,SSW,197,26.0,30.0,13,-99.99,,,-99.99,,2013-08-08 21:32:00,
2013-08-08 14:40:00,95.0,0.0,29.85,SSW,207,17.0,28.0,11,-99.99,,,-99.99,,2013-08-08 21:40:00,
2013-08-08 14:48:00,95.0,0.0,29.85,SSW,212,17.0,29.0,13,-99.99,,,-99.99,,2013-08-08 21:48:00,
2013-08-08 14:56:00,94.0,0.0,29.85,WSW,239,20.0,30.0,11,-99.99,,,-99.99,,2013-08-08 21:56:00,
2013-08-08 15:04:00,94.0,0.0,29.84,SW,221,25.0,30.0,10,-99.99,,,-99.99,,2013-08-08 22:04:00,
2013-08-08 15:12:00,94.0,0.0,29.84,SSW,205,18.0,28.0,12,-99.99,,,-99.99,,2013-08-08 22:12:00,
2013-08-08 15:20:00,94.0,0.0,29.84,SSW,205,10.0,28.0,12,-99.99,,,-99.99,,2013-08-08 22:20:00,
2013-08-08 15:32:00,94.0,0.0,29.84,South,184,25.0,28.0,11,-99.99,,,-99.99,,2013-08-08 22:32:00,
2013-08-08 15:40:00,94.0,0.0,29.84,SSW,205,16.0,26.0,11,-99.99,,,-99.99,,2013-08-08 22:40:00,
2013-08-08 15:48:00,95.0,0.0,29.83,SSW,205,20.0,28.0,11,-99.99,,,-99.99,,2013-08-08 22:48:00,
2013-08-08 15:56:00,94.0,0.0,29.83,SSW,202,14.0,28.0,12,-99.99,,,-99.99,,2013-08-08 22:56:00,
2013-08-08 16:04:00,94.0,0.0,29.83,South,176,23.0,28.0,12,-99.99,,,-99.99,,2013-08-08 23:04:00,
2013-08-08 16:12:00,94.0,0.0,29.83,SSW,206,12.0,32.0,12,-99.99,,,-99.99,,2013-08-08 23:12:00,
2013-08-08 16:20:00,94.0,0.0,29.83,SW,219,23.0,26.0,10,-99.99,,,-99.99,,2013-08-08 23:20:00,
2013-08-08 16:32:00,94.0,0.0,29.83,SSW,212,21.0,26.0,14,-99.99,,,-99.99,,2013-08-08 23:32:00,
2013-08-08 16:40:00,94.0,0.0,29.83,SW,220,18.0,29.0,10,-99.99,,,-99.99,,2013-08-08 23:40:00,
2013-08-08 16:48:00,93.0,0.0,29.83,SSW,209,16.0,29.0,10,-99.99,,,-99.99,,2013-08-08 23:48:00,
2013-08-08 16:56:00,93.0,0.0,29.82,SW,220,21.0,29.0,12,-99.99,,,-99.99,,2013-08-08 23:56:00,
2013-08-08 17:04:00,94.0,0.0,29.82,SSW,212,22.0,28.0,12,-99.99,,,-99.99,,2013-08-09 00:04:00,
2013-08-08 17:12:00,93.0,0.0,29.82,SSW,207,24.0,26.0,12,-99.99,,,-99.99,,2013-08-09 00:12:00,
2013-08-08 17:20:00,93.0,0.0,29.82,SSW,197,21.0,25.0,11,-99.99,,,-99.99,,2013-08-09 00:20:00,
2013-08-08 17:28:00,93.0,0.0,29.82,SSW,213,14.0,26.0,13,-99.99,,,-99.99,,2013-08-09 00:28:00,
2013-08-08 17:36:00,93.0,0.0,29.82,SW,216,23.0,25.0,14,-99.99,,,-99.99,,2013-08-09 00:36:00,
2013-08-08 17:44:00,92.0,0.0,29.82,SSW,209,18.0,25.0,14,-99.99,,,-99.99,,2013-08-09 00:44:00,
2013-08-08 17:52:00,92.0,0.0,29.81,SSW,206,23.0,28.0,12,-99.99,,,-99.99,,2013-08-09 00:52:00,
2013-08-08 18:00:00,92.0,0.0,29.81,SW,216,18.0,25.0,15,-99.99,,,-99.99,,2013-08-09 01:00:00,
2013-08-08 18:08:00,91.0,0.0,29.81,SSW,213,14.0,24.0,13,-99.99,,,-99.99,,2013-08-09 01:08:00,
2013-08-08 18:20:00,91.0,0.0,29.81,SW,218,20.0,25.0,13,-99.99,,,-99.99,,2013-08-09 01:20:00,
2013-08-08 18:28:00,91.0,0.0,29.81,SW,218,22.0,28.0,13,-99.99,,,-99.99,,2013-08-09 01:28:00,
2013-08-08 18:36:00,91.0,0.0,29.81,SW,232,13.0,28.0,14,-99.99,,,-99.99,,2013-08-09 01:36:00,
2013-08-08 18:44:00,90.0,0.0,29.81,West,268,10.0,20.0,14,-99.99,,,-99.99,,2013-08-09 01:44:00,
2013-08-08 18:52:00,90.0,0.0,29.81,West,259,13.0,17.0,17,-99.99,,,-99.99,,2013-08-09 01:52:00,
2013-08-08 19:00:00,90.0,0.0,29.81,West,266,14.0,20.0,16,-99.99,,,-99.99,,2013-08-09 02:00:00,
2013-08-08 19:08:00,89.0,0.0,29.81,WSW,257,16.0,20.0,17,-99.99,,,-99.99,,2013-08-09 02:08:00,
2013-08-08 19:16:00,88.0,0.0,29.81,West,263,20.0,23.0,17,-99.99,,,-99.99,,2013-08-09 02:16:00,
2013-08-08 19:24:00,88.0,0.0,29.82,WSW,255,14.0,20.0,18,-99.99,,,-99.99,,2013-08-09 02:24:00,
2013-08-08 19:32:00,87.0,0.0,29.82,WSW,256,14.0,18.0,16,-99.99,,,-99.99,,2013-08-09 02:32:00,
2013-08-08 19:40:00,86.0,0.0,29.82,West,259,13.0,16.0,18,-99.99,,,-99.99,,2013-08-09 02:40:00,
2013-08-08 19:48:00,85.0,0.0,29.82,WSW,242,14.0,16.0,18,-99.99,,,-99.99,,2013-08-09 02:48:00,
2013-08-08 19:56:00,84.0,0.0,29.82,WSW,257,9.0,18.0,17,-99.99,,,-99.99,,2013-08-09 02:56:00,
2013-08-08 20:04:00,84.0,0.0,29.82,WSW,250,13.0,16.0,19,-99.99,,,-99.99,,2013-08-09 03:04:00,
2013-08-08 20:12:00,83.0,0.0,29.82,WSW,237,9.0,15.0,18,-99.99,,,-99.99,,2013-08-09 03:12:00,
2013-08-08 20:20:00,83.0,0.0,29.82,WSW,238,7.0,14.0,20,-99.99,,,-99.99,,2013-08-09 03:20:00,
2013-08-08 20:28:00,82.0,0.0,29.82,SW,231,6.0,9.0,20,-99.99,,,-99.99,,2013-08-09 03:28:00,
2013-08-08 20:36:00,81.0,0.0,29.83,WSW,253,7.0,9.0,21,-99.99,,,-99.99,,2013-08-09 03:36:00,
2013-08-08 20:44:00,81.0,0.0,29.83,WSW,256,7.0,9.0,20,-99.99,,,-99.99,,2013-08-09 03:44:00,
2013-08-08 20:52:00,80.0,0.0,29.83,SW,226,6.0,8.0,20,-99.99,,,-99.99,,2013-08-09 03:52:00,
2013-08-08 21:00:00,79.0,0.0,29.83,SSW,206,6.0,8.0,19,-99.99,,,-99.99,,2013-08-09 04:00:00,
2013-08-08 21:04:00,78.0,0.0,29.83,SW,219,6.0,8.0,20,-99.99,,,-99.99,,2013-08-09 04:04:00,
2013-08-08 21:12:00,78.0,0.0,29.84,SSW,197,7.0,8.0,19,-99.99,,,-99.99,,2013-08-09 04:12:00,
2013-08-08 21:20:00,77.0,0.0,29.84,South,183,7.0,10.0,21,-99.99,,,-99.99,,2013-08-09 04:20:00,
2013-08-08 21:28:00,78.0,0.0,29.84,SSW,211,7.0,12.0,22,-99.99,,,-99.99,,2013-08-09 04:28:00,
2013-08-08 21:36:00,79.0,0.0,29.85,SSW,207,8.0,10.0,21,-99.99,,,-99.99,,2013-08-09 04:36:00,
2013-08-08 21:44:00,78.0,0.0,29.85,South,190,8.0,10.0,23,-99.99,,,-99.99,,2013-08-09 04:44:00,
2013-08-08 21:48:00,78.0,0.0,29.85,SSW,194,12.0,12.0,25,-99.99,,,-99.99,,2013-08-09 04:48:00,
2013-08-08 21:56:00,78.0,0.0,29.85,SSW,206,8.0,13.0,28,-99.99,,,-99.99,,2013-08-09 04:56:00,
2013-08-08 22:04:00,77.0,0.0,29.85,South,186,8.0,13.0,27,-99.99,,,-99.99,,2013-08-09 05:04:00,
2013-08-08 22:12:00,77.0,0.0,29.85,SSW,197,8.0,12.0,25,-99.99,,,-99.99,,2013-08-09 05:12:00,
2013-08-08 22:20:00,77.0,0.0,29.85,South,187,5.0,12.0,28,-99.99,,,-99.99,,2013-08-09 05:20:00,
2013-08-08 22:28:00,76.0,0.0,29.85,South,185,8.0,12.0,28,-99.99,,,-99.99,,2013-08-09 05:28:00,
2013-08-08 22:36:00,76.0,0.0,29.85,South,175,8.0,14.0,27,-99.99,,,-99.99,,2013-08-09 05:36:00,
2013-08-08 22:44:00,76.0,0.0,29.85,South,187,9.0,14.0,29,-99.99,,,-99.99,,2013-08-09 05:44:00,
2013-08-08 22:52:00,76.0,0.0,29.85,South,182,12.0,14.0,27,-99.99,,,-99.99,,2013-08-09 05:52:00,
2013-08-08 23:00:00,75.0,0.0,29.85,SSW,193,7.0,14.0,28,-99.99,,,-99.99,,2013-08-09 06:00:00,
2013-08-08 23:08:00,75.0,0.0,29.85,South,180,7.0,9.0,30,-99.99,,,-99.99,,2013-08-09 06:08:00,
2013-08-08 23:16:00,75.0,0.0,29.85,South,186,6.0,9.0,30,-99.99,,,-99.99,,2013-08-09 06:16:00,
2013-08-08 23:24:00,74.0,0.0,29.85,South,176,8.0,10.0,31,-99.99,,,-99.99,,2013-08-09 06:24:00,
2013-08-08 23:32:00,74.0,0.0,29.85,SSE,164,9.0,12.0,28,-99.99,,,-99.99,,2013-08-09 06:32:00,
2013-08-08 23:40:00,74.0,0.0,29.85,South,170,8.0,13.0,30,-99.99,,,-99.99,,2013-08-09 06:40:00,
2013-08-08 23:48:00,74.0,0.0,29.85,SSW,199,10.0,16.0,29,-99.99,,,-99.99,,2013-08-09 06:48:00,
2013-08-08 23:56:00,74.0,0.0,29.85,SSW,193,12.0,14.0,30,-99.99,,,-99.99,,2013-08-09 06:56:00,